星链-3075 (STARLINK-3075 )

导读 | 豆包AI

STARLINK-3075是美国太空探索技术公司(SpaceX)于2021年11月13日发射的星链(Starlink)系列卫星,属于V1.0卫星平台。该卫星运行在近地点355.133km、远地点357.473km的近地轨道,轨道倾角43.001°,是星链全球低轨卫星互联网星座的组成部分,旨在为全球提供高速低延迟宽带互联网服务。卫星具备自主避撞能力,寿命末期会主动离轨再入大气层烧毁。

Basic Information
目录编号:
49409
目录名称:
STARLINK-3075
国际标识:
2021-104B
轨道中心:
EARTH
卫星名称:
星链-3075
卫星全名:
星链-3075 (STARLINK-3075 )
卫星状态:
在轨 (已飞行1582 天)
发射日期:
2021-11-13 UTC
国别 :
美国 (US)
星等 :
--
Orbit Information
数据来源 国际轨道数据
星历时间: 2026-03-14T10:21:50+0800
17小时前
查看轨道信息
半长轴: 6917.884km
偏心率: 0.0001415
轨道倾角: 53.218°
近地点辐角 84.919°
升交点赤经 209.329°
平近点角 275.196°
近地点: 538.768km
远地点: 540.726km
周期: 95.438分钟
每日圈数: 15.088391
Detailed Information
固有亮度:
5
最大亮度:
2.5
卫星平台:
Starlink v1.5
覆盖范围:
全球
运营商:
太空探索技术公司
运营商所在国:
美国
制造商(研发单位):
太空探索技术公司
制造商所在国:
美国
使用方式:
暂无
Satellite Introduction
星链(Starlink)计划是由太空探索技术公司(SpaceX)提出的一个巨型低轨卫星互联网星座项目,计划在2019年至2024年间在太空搭建由约1.2万颗卫星组成的“星链”网络,其中1584颗将部署在地球上空550千米处的近地轨道,并从2020年开始工作。该卫星仍在工作。
2D Orbit Map
3D Orbit Map
Orbit Altitude Analysis Chart
Orbit Inclination Analysis Chart
Orbit Comprehensive Analysis Chart
View Comprehensive Chart